sat.trackr.live / text

‹ back to catalog

STARLINK-36950

NORAD 67992 · 2026-039G

PAYLOAD ACTIVE UNKNOWN

§ Identity

Operator
Country
US
Launch date
2026-02-27
Launch site
AFETR
Launch vehicle
Mass (kg)
RCS (m²)

Purposes: comms

External: N2YO · Heavens-Above · Gunter

§ Orbital elements

Epoch: 2026-09-19T16:47:57.133248Z

Period
94.26 min
Inclination
43.0043°
Eccentricity
0.0001950
Mean motion
15.27610047 rev/d
Perigee alt
481.6 km
Apogee alt
484.3 km
Semi-major
6,861.1 km
B*
5.3191e-4
RAAN
33.3784°
Arg perigee
283.3149°
Mean anomaly
76.7485°
Rev number
3,137

§ Raw data

STARLINK-369501 67992U 26039G   26262.69996682  .00014417  00000+0  53191-3 0  99942 67992  43.0043  33.3784 0001950 283.3149  76.7485 15.27610047 31376

JSON: /api/v1/satellites/67992 · /tle

For live sub-satellite position, see the globe view (requires WebGL).

§ Visibility from observer

Set your observer location to see the next 7 days of passes ≥ 10°. The values pass through the URL so the page stays shareable.

No JS? Fill the form by hand. The geolocation button needs JavaScript.